User: anonymous   Login
Location: Unspecified
(0.0000°N, 0.0000°E)
Time: 04:08:34
(UTC+00:00)
Language:

AUBIESAT-1 - Orbit

View from above orbital plane
View from above orbital plane
View from above satellite
View from above satellite

Ground track
Ground track

The orbit data is extracted from the following two-line orbital elements,

1 37854U 11061E   17328.53852275 +.00003849 +00000-0 +20882-3 0  9991
2 37854 101.7023 283.7318 0165341 320.2222 038.6961 15.04836111330591
Epoch (UTC): 24 November 2017 12:55:28
Eccentricity: 0.0165341
inclination: 101.7023°
perigee height: 437 km
apogee height: 666 km
right ascension of ascending node: 283.7318°
argument of perigee: 320.2222°
revolutions per day: 15.04836111
mean anomaly at epoch: 38.6961°
orbit number at epoch: 33059

The dashed part of the orbit path shows where the satellite is in the earth's shadow,  

DLR